SCP
1 1 2 2 2 2 2 1 1 2 2 2 2 1 1 1 0 0 0 0 1 1 1 1 1 1 0 0 1 1 1 1 1 0 0 0 0 0 0 0 0 0 0
1 1 1 2 2 2 2 1 1 1 2 2 2 1 1 1 1 0 0 0 1 1 1 1 1 1 1 1 1 1 1 1 1 1 0 0 0 0 0 0 0 0 0
1 1 1 2 2 2 2 1 1 1 2 2 2 2 1 1 1 1 1 0 0 1 1 1 1 1 1 1 1 1 1 1 1 1 0 0 0 0 0 0 0 0 0
1 1 1 2 2 2 2 1 1 1 1 2 2 2 1 1 1 1 1 1 0 1 1 1 1 1 1 1 1 1 1 1 1 1 0 0 0 0 0 0 0 0 0
1 1 1 1 2 2 2 1 1 1 1 1 1 2 1 1 1 1 1 1 0 0 1 1 1 1 1 1 1 1 1 1 1 0 0 0 0 0 0 0 0 0 0
1 1 1 1 2 2 2 2 1 1 1 1 1 1 1 1 1 1 1 1 1 1 1 1 1 1 1 1 1 1 1 0 0 0 0 0 0 0 0 0 0 0 0
1 1 1 1 1 2 2 2 1 1 1 1 1 1 1 1 1 1 1 1 1 1 1 1 1 1 1 1 1 1 0 0 0 0 0 0 0 0 0 0 0 0 0
1 1 1 1 1 1 2 2 1 1 1 1 1 1 1 1 2 2 1 1 1 1 1 1 1 1 1 1 1 0 0 0 0 0 0 0 0 0 0 0 0 0 0
1 1 1 1 1 1 1 1 1 1 1 1 1 1 1 1 1 1 1 1 1 1 1 1 1 1 0 0 0 0 0 0 0 0 0 0 0 0 0 0 0 0 0
1 1 1 1 1 1 1 1 1 1 1 1 0 0 0 1 1 1 1 1 1 1 1 1 1 0 0 0 0 0 0 0 0 0 0 0 0 0 0 0 0 0 0
1 1 1 1 1 1 1 1 0 0 0 0 0 0 0 0 0 0 1 1 1 1 1 1 0 0 0 0 0 0 0 0 0 0 0 0 0 0 0 0 0 0 0
1 1 1 1 1 1 1 1 0 0 0 0 0 0 0 0 0 0 0 0 0 0 0 0 0 0 0 0 0 0 0 0 0 0 0 0 0 0 0 0 0 0 0
1 1 1 1 1 1 0 0 0 0 0 0 0 0 0 0 0 0 0 0 0 0 0 0 0 0 0 0 0 0 0 0 0 0 0 0 0 0 0 0 0 0 0
1 1 1 1 1 0 0 0 0 0 0 0 0 0 0 0 0 0 0 0 0 0 0 0 0 0 0 0 0 0 0 0 0 0 0 0 0 0 0 0 0 0 0
1 1 1 1 1 0 0 0 0 0 0 0 0 0 0 0 0 0 0 0 0 0 0 0 0 0 0 0 0 0 0 0 0 0 0 0 0 0 0 0 0 0 0
1 1 1 1 1 0 0 0 0 0 0 0 0 0 0 0 0 0 0 0 0 0 0 0 0 0 0 0 0 0 0 0 0 0 0 0 0 0 0 0 0 0 0
1 1 1 1 1 0 0 0 0 0 0 0 0 0 0 0 0 0 0 0 0 0 0 0 0 0 0 0 0 0 0 0 0 0 0 0 0 0 0 0 0 0 0
1 1 1 1 1 1 0 0 0 0 0 0 0 0 0 0 0 0 0 0 0 0 0 0 0 0 0 0 0 0 0 0 0 0 0 0 0 0 0 0 0 0 0
1 1 1 1 1 1 1 0 0 0 0 0 0 0 0 0 0 0 0 0 0 0 0 0 0 0 0 0 0 0 0 0 0 0 0 0 0 0 0 0 0 0 0
1 1 1 1 1 1 1 0 0 0 0 0 0 0 0 0 0 0 0 0 0 0 0 0 0 0 0 0 0 0 0 0 0 0 0 0 0 0 0 0 0 0 0
1 1 1 1 1 0 0 0 0 0 0 0 0 0 0 0 0 0 0 0 0 0 0 0 0 0 0 0 0 0 0 0 0 0 0 0 0 0 0 0 0 0 0
2 1 1 1 1 0 0 0 0 0 0 0 0 0 0 0 0 0 0 0 0 0 0 0 0 0 0 0 0 0 0 0 0 0 0 0 0 0 0 0 0 0 0
2 2 1 1 1 0 0 0 0 0 0 0 0 0 0 0 0 0 0 0 0 0 0 0 0 0 0 0 0 0 0 0 0 0 0 0 0 0 0 0 0 0 0
2 2 1 1 1 0 0 0 0 0 0 0 0 0 0 0 0 0 0 0 0 0 0 0 0 0 0 0 0 0 0 0 0 0 0 0 0 0 0 0 0 0 0
2 2 1 1 1 1 0 0 0 0 0 0 0 0 0 0 0 0 0 0 0 0 0 0 0 0 0 0 0 0 0 0 0 0 0 0 0 0 0 0 0 0 0
2 2 2 1 1 1 0 0 0 0 0 0 0 0 0 0 0 0 0 0 0 0 0 0 0 0 0 0 0 0 0 0 0 0 0 0 0 0 0 0 0 0 0
Wind_Speed
3 3 2 1 3 6 7 7 7 8 8 9 9 9 10 9 9 9 9 9 9 9 10 10 11 11 11 11 11 11 11 11 11 10 10 10 10 11 11 11 10 7 12
2 2 1 1 4 7 7 7 7 7 8 9 9 9 9 9 9 9 8 8 9 9 10 10 10 10 10 10 10 10 10 10 10 10 10 9 9 9 10 10 10 7 11
3 2 1 2 5 6 7 7 7 7 7 8 9 9 9 9 9 9 8 8 9 9 9 9 10 10 10 10 10 10 10 10 9 9 9 5 5 8 9 10 10 10 10
2 2 2 4 6 6 6 7 7 7 7 8 8 9 9 9 9 9 9 9 8 8 9 9 9 9 9 9 9 9 9 9 9 9 5 4 4 6 8 9 9 10 10
3 3 2 4 6 7 6 6 6 7 7 7 8 8 8 9 9 9 9 9 8 8 8 8 8 9 9 9 8 8 9 9 9 7 4 4 3 6 8 9 9 9 9
3 3 3 5 5 6 6 6 6 6 6 6 7 8 8 8 9 8 9 8 8 8 7 8 8 8 8 8 8 8 8 8 7 4 4 4 3 7 8 8 8 8 9
3 3 3 5 6 6 6 6 6 5 6 7 7 7 8 8 8 8 7 7 7 7 7 7 7 7 7 7 7 7 8 8 5 4 4 3 4 6 8 8 8 8 8
4 4 4 5 6 6 6 6 6 5 6 6 6 7 7 8 7 7 7 7 7 6 6 6 7 6 6 6 6 7 7 7 5 4 3 3 5 6 7 7 7 7 8
4 4 4 4 4 6 6 6 6 6 5 6 6 7 7 7 7 7 7 7 7 6 6 6 6 6 6 6 6 7 7 8 4 3 3 2 4 6 7 7 6 6 6
4 4 4 4 4 4 4 6 7 7 7 7 7 7 7 7 7 7 7 7 7 7 7 7 6 6 6 6 7 7 7 6 4 3 2 2 5 5 6 6 6 6 6
3 3 3 3 4 4 4 5 5 6 7 7 6 7 7 4 4 5 6 7 7 7 7 7 6 7 7 7 7 7 6 3 3 2 2 4 4 4 5 5 6 6 6
1 2 2 2 2 3 3 3 3 3 4 4 4 4 4 4 3 4 6 7 7 7 7 7 7 7 6 3 5 5 3 3 2 2 2 5 4 4 4 5 5 5 5
1 1 1 1 2 2 2 2 2 2 3 3 4 4 3 3 3 3 2 3 4 5 4 5 5 3 3 3 2 3 3 2 2 2 3 5 4 4 4 4 5 5 5
1 0 1 1 1 2 2 2 2 2 2 2 3 3 3 2 2 2 2 2 2 2 2 2 2 3 3 3 3 3 3 2 2 2 3 5 5 4 4 3 3 4 4
1 1 1 1 1 1 2 2 2 1 2 2 2 2 3 2 2 2 2 2 1 1 2 2 2 2 2 2 2 3 3 3 2 2 2 5 5 4 4 3 3 3 4
2 2 1 2 2 2 2 2 1 1 2 2 2 2 2 2 2 2 1 1 1 1 1 1 1 1 1 1 2 2 2 2 2 2 2 3 4 5 4 4 3 3 4
3 2 2 2 2 2 2 2 1 1 2 2 1 2 2 2 2 2 1 1 1 1 1 2 2 1 2 2 2 2 2 2 2 2 2 2 2 4 5 4 4 4 4
3 2 2 2 3 2 2 2 1 1 2 1 1 1 2 2 2 2 1 1 1 1 1 2 2 1 1 1 1 1 1 1 2 2 2 2 2 2 3 5 4 4 4
4 3 3 3 3 3 2 2 2 1 1 1 1 1 1 2 2 2 1 1 1 1 1 1 1 1 1 1 1 1 1 1 1 1 2 2 2 2 2 4 6 5 5
3 3 4 4 3 3 2 2 1 1 1 1 1 1 1 1 2 2 1 1 1 1 2 1 1 1 1 1 1 1 1 1 1 1 1 2 2 3 3 3 3 4 6
3 3 4 4 4 3 2 2 2 1 1 0 1 1 1 2 2 2 1 1 1 1 1 1 1 1 1 1 1 1 1 1 1 1 1 1 2 2 2 2 2 2 3
4 4 4 4 4 4 3 2 1 1 1 1 1 1 1 1 1 1 1 1 1 1 1 1 1 1 1 1 1 1 1 2 1 1 1 1 1 2 2 2 2 2 2
5 5 4 4 4 4 3 2 2 2 1 1 0 0 0 1 1 1 1 1 1 1 1 1 0 1 1 0 0 1 1 2 3 1 1 1 1 1 2 2 2 2 2
5 4 4 4 4 4 4 3 3 3 2 2 1 1 0 1 1 1 1 1 1 0 1 1 0 1 2 1 0 0 0 1 1 2 2 1 1 1 2 2 2 2 2
4 4 4 4 3 3 4 4 4 2 2 1 1 1 1 0 0 1 1 1 1 1 1 1 0 1 1 1 1 1 0 0 0 1 3 3 2 2 2 2 1 1 2
3 3 3 4 3 3 4 4 4 4 3 2 2 2 1 0 0 1 1 1 1 1 1 1 1 1 2 2 1 1 1 1 1 1 2 3 3 3 2 1 1 1 1
Wind_Direction
310 308 284 177 119 119 113 107 102 102 105 109 106 103 100 98 96 93 91 90 87 85 83 82 81 78 75 72 69 68 68 65 63 61 64 70 72 75 74 72 66 60 65
308 305 293 148 133 126 120 113 106 104 105 107 108 105 102 99 97 94 91 91 90 87 84 82 81 80 77 75 72 69 67 63 59 57 57 61 67 72 75 76 72 70 67
9 359 43 93 131 124 123 121 116 111 107 107 106 105 104 101 98 94 90 89 90 88 85 84 82 81 79 77 73 70 68 63 57 54 49 41 57 70 76 76 74 71 69
18 24 51 86 110 115 119 121 118 116 110 107 105 103 102 101 98 93 89 86 86 87 88 87 86 84 81 77 74 71 67 62 55 52 41 32 40 69 76 77 74 72 70
34 34 50 88 101 105 107 117 120 119 114 108 105 103 102 99 97 92 88 84 82 83 84 86 86 85 82 79 75 73 67 62 54 48 37 32 34 69 77 78 74 72 71
39 32 51 81 92 100 102 103 115 119 119 114 107 102 98 95 93 92 88 83 80 80 81 84 81 82 82 81 77 74 66 61 53 45 37 34 39 72 76 76 75 75 74
47 37 51 81 84 89 92 93 96 108 115 114 108 103 97 93 90 88 88 83 80 76 78 85 82 80 78 77 76 72 65 62 58 48 40 39 51 70 75 75 74 73 73
64 49 52 74 80 85 87 83 81 90 97 107 106 101 95 90 84 81 83 83 79 74 75 81 80 78 76 73 71 70 64 61 56 49 43 43 55 69 74 74 73 72 69
58 53 45 52 63 75 79 77 77 73 78 83 88 93 89 84 80 78 75 76 74 72 72 75 78 75 72 70 67 64 62 60 55 48 45 43 58 71 74 73 71 69 68
57 49 46 48 50 53 59 66 71 70 69 72 72 75 79 77 75 71 65 68 69 67 65 67 72 71 68 64 63 61 57 53 45 40 29 41 54 66 71 69 67 66 64
44 36 42 49 53 55 58 58 62 68 68 68 66 68 65 57 63 61 60 63 64 63 65 63 68 68 65 61 60 58 53 44 38 33 22 42 52 61 67 70 66 62 59
32 21 36 44 57 61 60 59 51 59 62 59 57 55 61 57 55 64 60 57 55 55 60 61 63 62 55 46 48 49 45 37 32 23 21 33 47 57 60 64 63 59 51
184 46 31 45 58 73 73 73 58 57 64 60 61 59 63 63 56 48 50 45 44 48 45 49 48 45 49 49 43 41 42 40 21 8 16 27 35 46 52 56 57 51 44
166 163 37 58 75 78 78 84 80 74 75 69 63 67 73 68 60 52 42 47 48 46 53 50 55 50 52 51 51 48 41 37 24 8 8 21 25 31 36 35 46 43 39
191 216 185 137 135 110 94 85 81 85 92 91 81 67 74 84 76 60 50 42 53 64 65 61 61 58 54 48 47 50 40 30 24 22 1 11 18 21 23 17 30 29 30
214 219 199 177 168 138 127 121 114 108 107 100 95 86 85 91 93 87 68 50 38 67 72 74 68 69 58 56 48 42 32 23 21 21 18 5 16 21 18 20 18 18 17
215 209 195 182 160 151 145 132 119 109 104 97 87 88 85 85 92 89 82 62 30 33 85 79 60 60 59 53 47 38 32 25 23 19 20 18 5 14 19 17 9 9 2
205 205 198 174 162 160 155 144 131 110 110 103 91 85 82 80 89 95 86 56 36 36 62 90 73 55 45 40 32 21 18 17 20 23 31 24 18 13 9 13 5 357 349
202 199 192 175 167 165 156 141 124 116 114 113 102 94 92 90 90 100 99 68 68 63 44 73 66 57 50 24 13 23 9 2 356 30 38 24 21 19 6 5 2 354 347
198 190 185 174 166 155 141 122 108 98 95 98 110 109 105 97 97 105 102 76 83 83 51 41 82 47 46 13 15 16 353 337 18 45 17 10 12 16 11 8 3 354 355
192 187 190 175 168 155 155 164 171 190 178 133 135 122 121 106 104 102 91 84 81 101 94 53 92 78 36 15 31 2 347 343 31 12 358 7 7 5 7 7 5 1 348
200 192 189 182 173 173 171 168 168 155 162 167 137 123 125 120 123 118 111 112 105 99 97 65 66 117 55 37 60 52 348 334 341 335 354 359 351 353 356 355 354 355 347
205 198 192 185 178 177 159 126 99 82 68 94 149 183 139 139 134 129 140 128 127 122 146 104 130 138 153 251 93 129 142 259 311 309 309 360 356 347 335 338 348 343 356
211 196 185 178 177 173 161 158 157 167 189 208 197 204 179 155 165 165 152 155 171 170 169 176 89 189 161 188 237 31 174 168 201 304 304 305 310 305 310 321 332 341 355
202 187 180 172 173 173 172 177 179 185 186 162 150 164 165 172 191 186 170 171 184 204 205 184 143 222 187 182 184 185 253 337 143 208 279 299 304 278 284 294 298 316 345
199 181 172 171 180 181 181 183 187 188 178 169 186 192 198 206 226 215 180 178 197 213 223 217 205 217 212 191 192 195 192 194 204 207 246 276 289 287 286 279 272 288 322